Weather in Triest

Italy     45˚39′23″N   13˚47′08″E
temp.,
°C
wind,
m/s
gust,
m/s
humid.,
%
clouds,
%
prec.,
mm/h
press.,
hPa
HPBL,
m
1 december, tue
tue101:00+1˚ene48740 0.0 1023311
04:00+1˚ene47750 0.0 1021291
07:00+1˚ene46760 0.0 1020279
10:00+2˚ene476798 0.0 1020340
13:00+4˚ene576055 0.0 1018402
16:00+2˚ene69670 0.0 1017355
19:00+2˚ene7116944 0.0 1018430
22:00+2˚ene8136991 0.0 1018458
2 december, wed
wed201:00+2˚ene9136895 0.0 1018413
04:00+1˚ne91469100 0.0 1016488
07:00+1˚ne91574100 0.4 1016544
10:00+1˚ene101587100 4.3 1016461
13:00+2˚ene81278100 5.7 1015434
16:00+2˚ene91376100 0.1 1014349
19:00+1˚ne91387100 2.4 1013345
22:00+1˚ene81379100 2.0 1012402
3 december, thu
thu301:00+2˚ene91683100 6.1 1009423
04:00+1˚ene81390100 5.4 1007415
07:00+1˚ene81189100 6.8 1007344
10:00+1˚ene71086100 0.9 1007325
13:00+3˚ene4783100 1.8 1006298
16:00+2˚ene4685100 0.1 1004245
19:00+2˚ene3486100 0.2 1004161
22:00+3˚ene3486100 0.1 1003133
4 december, fri
fri401:00+3˚e238695 0.1 1001109
04:00+4˚ese2394100 0.1 1001158
07:00+5˚se248995 0.1 1000310
10:00+6˚ese3585100 0.1 1000342
13:00+9˚se378294 0.3 999696
16:00+7˚ese51390100 3.6 996901
19:00+10˚se71679100 5.4 9951221
22:00+10˚s91686100 1.4 9941350
5 december, sat
sat501:00+10˚sse81485100 4.4 993910
04:00+10˚sse51380100 0.6 993691
07:00+10˚sse51291100 1.8 993810
10:00+10˚s61188100 6.9 993714
13:00+8˚ene2393100 19.6 992147
16:00+7˚ene4590100 5.2 991167
19:00+7˚ne2296100 11.3 99196
22:00+7˚wnw3792100 8.3 991506